Regional Weather Roundup
Issued by NWS Sterling, VA

Home | Current Version | Previous Version | Text Only | Print | Product List | Glossary Off
Versions: 1 2 3 4 5 6 7 8 9 10 11 12 13 14 15 16 17 18 19 20 21 22 23 24 25 26 27 28 29 30 31 32 33 34 35 36 37 38 39 40 41 42 43 44 45 46 47 48 49 50

000
ASUS41 KLWX 171710
RWRLWX

REGIONAL WEATHER ROUNDUP
NATIONAL WEATHER SERVICE BALTIMORE MD/WASHINGTON DC
1200 PM EST WED DEC 17 2014

Note: "FAIR" indicates few or no clouds below 12,000 feet
with no significant weather and/or obstructions to visibility.
 TC=TEMPERATURE CELSIUS

 * =Non NWS site. Station does not report precipitation (e.g. rain,
    snow, etc.), thunder, or fog.

DCZ001-MDZ009-015-VAZ040>042-051-053>054-171800-
WASHINGTON METRO

CITY           SKY/WX    TMP DP  RH WIND       PRES   REMARKS
WASHINGTON NAT PTSUNNY   56  35  45 NW15G24   29.99F
DULLES         PTSUNNY   49  34  56 NW16G23   30.00F
ANDREWS AFB    CLOUDY    51  36  56 NW17G25   29.97F
FT BELVOIR     SUNNY     55  38  53 W15       29.99F
QUANTICO       PTSUNNY   47  41  80 NW8       30.01F
COLLEGE PARK*  SUNNY     54  34  47 W8G22     29.97F
LEESBURG*      SUNNY     52  34  50 MISG      30.00S
MANASSAS*      CLOUDY    48  46  93 CALM      30.00F
GAITHERSBURG*  CLOUDY    48  34  57 W18       30.01F

$$

MDZ006>007-011-014-171800-
BALTIMORE METRO

CITY           SKY/WX    TMP DP  RH WIND       PRES   REMARKS
BWI AIRPORT    MOSUNNY   53  36  52 W14G28    29.95F
MD SCIENCE CTR   N/A     50  36  58 MISG      29.96F
MARTIN STATE   PTSUNNY   54  39  58 W14G23    29.97F
ANNAPOLIS      PTSUNNY   53  36  52 W13       29.96F
FORT MEADE*    MOSUNNY   52  37  58 W20G31    29.98F

$$

MDZ012-015-019>023-171800-
MARYLAND EASTERN SHORE

CITY           SKY/WX    TMP DP  RH WIND       PRES   REMARKS
OCEAN CITY     MOSUNNY   53  38  56 NW16G29   29.94F
SALISBURY      SUNNY     56  38  50 NW15G24   29.96F
BAY BRIDGE AP*   N/A     50  36  57 W13       29.97F
CAMBRIDGE*     SUNNY     54  39  58 W8        29.97F
EASTON*        SUNNY     54  45  71 W9        30.00F

$$

MDZ017>025-171800-
SOUTHERN MARYLAND

CITY           SKY/WX    TMP DP  RH WIND       PRES   REMARKS
PATUXENT RIVER MOSUNNY   52  43  71 VRB6      29.98F
ST INIGOES     SUNNY     47  43  86 SW3       29.98F
LEONARDTOWN*   SUNNY     50  41  71 SW7       29.99F

$$

MDZ003>005-171800-
NORTH CENTRAL MARYLAND

CITY           SKY/WX    TMP DP  RH WIND       PRES   REMARKS
FREDERICK*     MOSUNNY   52  34  50 W22       30.11
HAGERSTOWN APT CLOUDY    47  31  53 W20G26    29.98F
WESTMINSTER*   PTSUNNY   46  37  71 W14G24    29.96S

$$

MDZ501>502-171800-
WESTERN MARYLAND

CITY           SKY/WX    TMP DP  RH WIND       PRES   REMARKS
OAKLAND*       CLOUDY    30 N/A N/A W18G30    29.97S HAZE    WCI  18
CUMBERLAND*    PTSUNNY   43  32  65 W7G18     30.07F

$$

VAZ025>031-171800-
SHENANDOAH VALLEY

CITY           SKY/WX    TMP DP  RH WIND       PRES   REMARKS
WINCHESTER*    MOSUNNY   50  28  43 NW20G25   29.99F
FRONT ROYAL*   CLOUDY    52  32  46 W7        29.98F
LURAY*         PTSUNNY   54  32  43 W10G16    30.00F
NEW MARKET*    FAIR      51  31  46 W3        30.00S
STAUNTON*      PTSUNNY   51  30  43 NW6       30.02F
WAYNESBORO*    FAIR      49  30  47 W10G20    30.01F

$$

WVZ021-048>050-054>055-171800-
EASTERN WEST VIRGINIA PANHANDLE

CITY           SKY/WX    TMP DP  RH WIND       PRES   REMARKS
MARTINSBURG    CLOUDY    48  29  47 NW10      30.01S
PETERSBURG*    PTSUNNY   44  26  50 SE5       30.05S

$$

VAZ036>039-050-171800-
CENTRAL FOOTHILLS

CITY           SKY/WX    TMP DP  RH WIND       PRES   REMARKS
CHARLOTTESVILL PTSUNNY   55  34  45 VRB7      30.00F
CULPEPER*      SUNNY     55  37  50 W7        30.00F
ORANGE*        MOSUNNY   55  37  50 SW10G16   30.01F
GORDONSVILLE*  FAIR      53  34  48 W6G18     30.00S
WARRENTON*     CLOUDY    51  51 100 NW5       29.99F

$$

VAZ055>057-171800-
NORTH AND CENTRAL PIEDMONT

CITY           SKY/WX    TMP DP  RH WIND       PRES   REMARKS
FREDERICKSBRG* SUNNY     58  38  47 W12G17    29.99F
STAFFORD*      MOSUNNY   56  36  48 W6        30.03F

$$

NCZ024-NYZ072-PAZ021-071-VAZ022-071-171800-
OTHER REGIONAL OBSERVATIONS

CITY           SKY/WX    TMP DP  RH WIND       PRES   REMARKS
NEW YORK CITY  PTSUNNY   52  38  58 VRB7      29.84F
PHILADELPHIA   PTSUNNY   52  39  61 W17       29.90F
PITTSBURGH     FLURRIES  35  28  75 W14G21    30.06S WCI  26
ROANOKE        MOSUNNY   49  30  48 NW14G25   30.09F
RICHMOND       MOSUNNY   58  37  45 W12       30.01F
RALEIGH        MOSUNNY   56  37  49 NW7       30.10F

$$

ANZ530>537-171800-
MARINE OBSERVATIONS

STATION/POSITION TIME  TEMP    WIND        PRES
                       AIR SEA DIR/SP/G
                 (UTC) (F)     (DEG/KT/KT) (MB)
THOMAS PT LIGHT  1700   51 43  300/ 22/ 26 1015.3F
BALT KEY BRIDGE  1700   50     280/ 13/ 14 1014.4S
COVE POINT       1700   54     240/  2/  4 1015.3F
LEWISETTA        1700   50 44  310/  7/ 10 1015.1F
SOLOMONS ISLAND  1700      44                N/A
PINEY POINT      1700           90/  2/  2   N/A

$$




USA.gov is the U.S. government's official web portal to all federal, state and local government web resources and services.